Weather History for Florala, AL

Change the Weather History Date:

Monday, December 2, 2013

  Actual Average (KCEW) Record (KCEW)
Temperature  
Mean Temperature 58 °F -  
Max Temperature 70 °F 67 °F 82 °F (1982)
Min Temperature 46 °F 43 °F 24 °F (1999)
Degree Days  
Heating Degree Days 7    
Growing Degree Days 8 (Base 50)    
Moisture  
Dew Point 50 °F    
Average Humidity 74    
Maximum Humidity 93    
Minimum Humidity 42    
Precipitation  
Precipitation 0.00 in - - ()
Sea Level Pressure  
Sea Level Pressure 29.91 in    
Wind  
Wind Speed 1 mph (SSW)    
Max Wind Speed 8 mph    
Max Gust Speed -    
Visibility 10 miles    
Events Rain    
Averages and records for this station are not official NWS values.
T = Trace of Precipitation, MM = Missing Value Source: NWS Daily Summary

Daily Weather History Graph

Daily Weather History Graph

Search for Another Location

Airport:

Trip Planner

Search our weather history database for the weather conditions in past years. The results will help you decide how hot, cold, wet, or windy it might be!

Date:

Astronomy

Dec. 02, 2013 Rise Set
Actual Time 6:26 AM CST 4:42 PM CST
Civil Twilight 6:00 AM CST 5:09 PM CST
Nautical Twilight 5:30 AM CST 5:38 PM CST
Astronomical Twilight 5:01 AM CST 6:08 PM CST
Moon 5:53 AM CST (12/2) 4:43 PM CST (12/2)
Length of Visible Light 11h 08m
Length of Day
10h 15m
Waning Crescent, 0% of the Moon is Illuminated
Dec 2
Waning Crescent
Dec 2
New
Dec 9
First Quarter
Dec 17
Full
Dec 25
Last Quarter

Hourly Weather History & Observations

Time (CST) Temp. Dew Point Humidity Pressure Visibility Wind Dir Wind Speed Gust Speed Precip Events Conditions
12:58 AM 51.1 °F 48.0 °F 89% 30.03 in 10.0 mi Calm Calm - N/A   Clear
1:58 AM 51.1 °F 48.0 °F 89% 30.03 in 10.0 mi Calm Calm - N/A   Clear
2:58 AM 51.1 °F 48.0 °F 89% 29.98 in 10.0 mi Calm Calm - 0.00 in Rain Light Rain
3:58 AM 51.1 °F 48.0 °F 89% 29.99 in 10.0 mi Calm Calm - 0.00 in   Scattered Clouds
4:58 AM 48.9 °F 46.0 °F 90% 29.96 in 10.0 mi Calm Calm - N/A   Partly Cloudy
5:58 AM 48.0 °F 46.0 °F 93% 29.97 in 10.0 mi Calm Calm - 0.00 in   Overcast
6:58 AM 46.0 °F 44.1 °F 93% 29.96 in 8.0 mi Calm Calm - N/A   Clear
8:58 AM 60.1 °F 48.0 °F 64% 29.95 in 10.0 mi Calm Calm - N/A   Clear
9:58 AM 64.0 °F 48.0 °F 56% 29.94 in 10.0 mi Calm Calm - 0.00 in   Clear
10:58 AM 68.0 °F 48.9 °F 50% 29.92 in 10.0 mi Calm Calm - N/A   Clear
11:58 AM 69.1 °F 48.9 °F 49% 29.88 in 10.0 mi Variable 3.5 mph - N/A   Clear
12:58 PM 69.1 °F 46.9 °F 45% 29.86 in 10.0 mi Variable 3.5 mph - N/A   Clear
1:58 PM 70.0 °F 46.0 °F 42% 29.84 in 10.0 mi SW 4.6 mph - N/A   Clear
2:58 PM 70.0 °F 48.0 °F 46% 29.83 in 10.0 mi SW 5.8 mph - N/A   Clear
3:58 PM 68.0 °F 50.0 °F 52% 29.83 in 10.0 mi SW 4.6 mph - N/A   Clear
4:58 PM 60.1 °F 52.0 °F 75% 29.83 in 10.0 mi Variable 3.5 mph - 0.00 in   Clear
5:58 PM 60.1 °F 52.0 °F 75% 29.85 in 10.0 mi SW 5.8 mph - N/A   Clear
6:58 PM 60.1 °F 53.1 °F 78% 29.86 in 10.0 mi SSW 8.1 mph - N/A   Overcast
7:58 PM 57.9 °F 52.0 °F 81% 29.87 in 10.0 mi South 3.5 mph - N/A   Mostly Cloudy
8:58 PM 57.0 °F 54.0 °F 89% 29.86 in 10.0 mi South 3.5 mph - N/A   Scattered Clouds
9:58 PM 57.9 °F 55.0 °F 90% 29.87 in 10.0 mi Calm Calm - N/A   Mostly Cloudy
10:58 PM 57.9 °F 55.0 °F 90% 29.88 in 10.0 mi South 3.5 mph - 0.00 in Rain Light Rain
11:58 PM 57.0 °F 55.0 °F 93% 29.86 in 10.0 mi South 3.5 mph - 0.00 in   Mostly Cloudy